Lexington Weather

Lexington, Massachusetts, USA

70°F
8/17/2022 6:46pm 
  • Lexington Conditions: Overcast
  • Temperature: 69.8°F / 21.0°CColder 0.2°F than last hour.
  • Dew Point: 57.9°FDecreased 1.1°Fsince last hour.
  • Relative Humidity: 66%Decreased 2.0% since last hour.
  • Wind: Calm, 10-min avg: Calm, gust: 2 mph
  • Barometer: 29.85 in Steady
  • Visibility: 10 miles
  • Rain Today: 0.00 in
  •   

Regional Weather Roundup
for Boston, MA

        
000
ASUS41 KBOX 130110
RWRBOX

REGIONAL WEATHER ROUNDUP
NATIONAL WEATHER SERVICE BOSTON/NORTON MA
900 PM EDT FRI AUG 12 2022

NOTE:  "FAIR" INDICATES FEW OR NO CLOUDS BELOW 12,000 FEET WITH NO 
SIGNIFICANT WEATHER AND/OR OBSTRUCTIONS TO VISIBILITY.

MAZALL-130200-
EASTERN MASSACHUSETTS
  
CITY           SKY/WX    TMP DP  RH WIND       PRES   REMARKS
BOSTON         PTCLDY    70  54  56 VRB5      30.04R                  
BEVERLY        PTCLDY    66  49  54 N5        30.03R                  
LAWRENCE       PTCLDY    68  49  50 N8        30.06R                  
BEDFORD        MOCLDY    69  50  50 CALM      30.03R                  
BLUE HILL      NOT AVBL                                               
NORWOOD        PTCLDY    67  55  65 CALM      30.04R                  
MARSHFIELD     MOCLDY    64  61  88 CALM      30.03R                  
PLYMOUTH       MOCLDY    67  62  84 N3        30.03R                  
TAUNTON          N/A    N/A N/A N/A MISG      30.02R                  
NEW BEDFORD    MOCLDY    68  63  84 W3        30.02R                  
$$

MAZALL-130200-
CAPE COD AND THE ISLANDS
  
CITY           SKY/WX    TMP DP  RH WIND       PRES   REMARKS
FALMOUTH       MOCLDY    68  64  88 N6        30.01R                  
HYANNIS        MOCLDY    69  63  81 CALM      30.01R                  
CHATHAM        MOCLDY    67  64  90 NW3       30.02R                  
NANTUCKET      MOCLDY    69  66  90 N3        30.01R                  
MARTHAS VNYRD  MOCLDY    67  65  93 CALM      30.01R                  
$$
 
MAZALL-130200-
CENTRAL AND WESTERN MASSACHUSETTS
  
CITY           SKY/WX    TMP DP  RH WIND       PRES   REMARKS
WORCESTER      MOCLDY    69  47  45 N7        30.07R                  
FITCHBURG      MOCLDY    67  48  50 N5        30.06R                  
ORANGE         CLEAR     63  51  65 CALM      30.07R                  
SPRINGFIELD    PTCLDY    63  50  63 NE5       30.03R                  
WESTFIELD      PTCLDY    67  46  47 N3        30.04R                  
NORTH ADAMS    PTCLDY    59  53  80 CALM      30.08R                  
PITTSFIELD     MOCLDY    63  48  58 CALM      30.08R                  
$$
 
RIZALL-130200-
RHODE ISLAND
  
CITY           SKY/WX    TMP DP  RH WIND       PRES   REMARKS
PROVIDENCE     MOCLDY    71  65  81 CALM      30.03R                  
NEWPORT        MOCLDY    68  66  93 CALM      30.02R                  
BLOCK ISLAND   MOCLDY    69  64  84 CALM      30.02R                  
SMITHFIELD     MOCLDY    70  50  49 NE10      30.05R                  
WESTERLY       MOCLDY    68  63  84 N3        30.01R                  
$$
 
CTZALL-130200-
CONNECTICUT
  
CITY           SKY/WX    TMP DP  RH WIND       PRES   REMARKS
BRADLEY INTL   PTCLDY    69  47  45 N6        30.04R                  
HARTFORD       CLEAR     74  45  35 N8        30.02R                  
BRIDGEPORT     CLEAR     75  44  33 N9        30.02R                  
DANBURY        CLEAR     73  43  33 N6        30.06R                  
GROTON         MOCLDY    75  50  41 N7        30.00R                  
NEW HAVEN      CLEAR     74  47  38 N7        30.02R                  
CHESTER        FAIR      70  50  49 NW3       30.03R                  
MERIDEN        CLEAR     73  44  35 NW5       30.03R                  
WILLIMANTIC    MOCLDY    70  50  49 N5        30.03R                  
OXFORD         CLEAR     64  45  49 N9        30.06R                  
$$

MEZ002-015-021-024-NHZ003-005-008-011-012-014-VTZ005-008-130200-
NORTHERN NEW ENGLAND
  
CITY           SKY/WX    TMP DP  RH WIND       PRES   REMARKS
PORTLAND ME    MOCLDY    68  51  54 N10       30.04R                  
BANGOR ME      PTCLDY    64  53  67 NW8       30.04R                  
CONCORD NH     MOCLDY    66  48  52 NW12      30.06R                  
MANCHESTER NH  MOCLDY    71  49  45 N9        30.04R                  
NASHUA NH      MOCLDY    69  51  52 NW5       30.06R                  
PORTSMOUTH NH  MOCLDY    66  49  55 W7        30.03R                  
JAFFREY NH     PTCLDY    63  50  62 CALM      30.08R                  
KEENE NH       CLEAR     61  53  75 CALM        N/A                   
BURLINGTON VT  CLOUDY    65  53  65 N5        30.12R                  
MT. WASHINGTON PTCLDY    38  38  99 NW17        N/A  WCI  29          
$$

NYZ052-076-130200-
EASTERN NEW YORK
  
CITY           SKY/WX    TMP DP  RH WIND       PRES   REMARKS
ALBANY         MOCLDY    70  46  42 NW8       30.08R                  
NEW YORK CITY  MOCLDY    79  44  28 NE6       30.01R                  
$$
 
ANZALL-130200-
MARINE OBSERVATIONS
  
STATION/POSITION TIME  TEMP    WIND        PRES    VSBY  WAVE
                       AIR SEA DIR/SP/G                  HT/PER
                 (UTC) (F)     (DEG/KT/KT) (MB)    (MI)  (FT/S)
BOSTON BUOY      NOT AVBL
BUZZARDS BAY     NOT AVBL
NANTUCKET SOUND  NOT AVBL
MASS BAY-STELLWA NOT AVBL
ISLE OF SHOALS   NOT AVBL
S OF BLOCK IS    NOT AVBL
$$

......................KEY.........................
  SKY/WX - SKY CONDITION/PRESENT WEATHER
  TMP    - TEMPERATURE IN FAHRENHEIT
  DWPT   - DEWPOINT IN FAHRENHEIT
  RH     - RELATIVE HUMIDITY IN PERCENT
  WIND   - DIRECTION AND SPEED IN MPH
  PRES   - MEAN SEA LEVEL PRESSURE IN INCHES OF HG
  WCI    - WIND CHILL INDEX
  VSB    - VISIBILITY IN MILES
  HX     - HEAT INDEX
  TC     - TEMPERATURE IN CELSIUS
  VRB    - VARIABLE WIND DIRECTION
  N/A    - NOT AVAILABLE
  
      

Other recent Regional Weather Roundups

Wed Aug 17, 6:10pm

Wed Aug 17, 5:10pm

Wed Aug 17, 4:10pm

Wed Aug 17, 3:10pm

Wed Aug 17, 2:10pm

Wed Aug 17, 1:10pm

Wed Aug 17, 12:10pm

Wed Aug 17, 11:10am

Wed Aug 17, 10:10am

Wed Aug 17, 9:10am

Wed Aug 17, 8:10am

Wed Aug 17, 7:10am

Wed Aug 17, 6:10am

Wed Aug 17, 5:10am

Wed Aug 17, 4:10am

Wed Aug 17, 3:10am

Wed Aug 17, 2:10am

Wed Aug 17, 1:10am

Wed Aug 17, 12:10am

Tue Aug 16, 11:10pm

Tue Aug 16, 10:10pm

Tue Aug 16, 9:10pm

Tue Aug 16, 8:10pm

Tue Aug 16, 7:10pm

Tue Aug 16, 6:10pm

Tue Aug 16, 5:10pm

Tue Aug 16, 4:10pm

Tue Aug 16, 3:10pm

Tue Aug 16, 2:10pm

Tue Aug 16, 1:10pm

Tue Aug 16, 12:10pm

Tue Aug 16, 11:10am

Tue Aug 16, 10:10am

Tue Aug 16, 9:10am

Tue Aug 16, 8:10am

Tue Aug 16, 7:10am

Tue Aug 16, 6:10am

Tue Aug 16, 5:10am

Tue Aug 16, 4:10am

Tue Aug 16, 3:10am

Tue Aug 16, 2:10am

Tue Aug 16, 1:10am

Tue Aug 16, 12:10am

Mon Aug 15, 11:10pm

Mon Aug 15, 10:10pm

Mon Aug 15, 9:10pm

Mon Aug 15, 8:10pm

Mon Aug 15, 7:10pm

Mon Aug 15, 6:10pm

Mon Aug 15, 5:10pm

Mon Aug 15, 4:10pm

Mon Aug 15, 3:10pm

Mon Aug 15, 2:10pm

Mon Aug 15, 1:10pm

Mon Aug 15, 12:10pm

Mon Aug 15, 11:10am

Mon Aug 15, 10:10am

Mon Aug 15, 9:10am

Mon Aug 15, 8:10am

Mon Aug 15, 7:10am

Mon Aug 15, 6:10am

Mon Aug 15, 5:10am

Mon Aug 15, 4:10am

Mon Aug 15, 3:10am

Mon Aug 15, 2:10am

Mon Aug 15, 1:10am

Mon Aug 15, 12:10am

Sun Aug 14, 11:10pm

Sun Aug 14, 10:10pm

Sun Aug 14, 9:10pm

Sun Aug 14, 8:10pm

Sun Aug 14, 7:10pm

Sun Aug 14, 6:10pm

Sun Aug 14, 5:10pm

Sun Aug 14, 4:10pm

Sun Aug 14, 3:10pm

Sun Aug 14, 2:10pm

Sun Aug 14, 1:10pm

Sun Aug 14, 12:10pm

Sun Aug 14, 11:10am

Sun Aug 14, 10:10am

Sun Aug 14, 9:10am

Sun Aug 14, 8:10am

Sun Aug 14, 7:10am

Sun Aug 14, 6:10am

Sun Aug 14, 5:10am

Sun Aug 14, 4:10am

Sun Aug 14, 3:10am

Sun Aug 14, 2:10am

Sun Aug 14, 1:10am

Sun Aug 14, 12:10am

Sat Aug 13, 11:10pm

Sat Aug 13, 10:10pm

Sat Aug 13, 9:10pm

Sat Aug 13, 8:10pm

Sat Aug 13, 7:10pm

Sat Aug 13, 6:10pm

Sat Aug 13, 5:10pm

Sat Aug 13, 4:10pm

Sat Aug 13, 3:10pm

Sat Aug 13, 2:10pm

Sat Aug 13, 1:10pm

Sat Aug 13, 12:10pm

Sat Aug 13, 11:10am

Sat Aug 13, 10:10am

Sat Aug 13, 9:10am

Sat Aug 13, 8:10am

Sat Aug 13, 7:10am

Sat Aug 13, 6:10am

Sat Aug 13, 5:10am

Sat Aug 13, 4:10am

Sat Aug 13, 3:10am

Sat Aug 13, 2:10am

Sat Aug 13, 1:10am

Sat Aug 13, 12:10am

Fri Aug 12, 11:10pm

Fri Aug 12, 10:10pm

Fri Aug 12, 8:10pm

Fri Aug 12, 7:10pm

Fri Aug 12, 6:10pm

Fri Aug 12, 5:10pm

Fri Aug 12, 4:10pm

Fri Aug 12, 3:10pm

Fri Aug 12, 2:10pm

Fri Aug 12, 1:10pm

Fri Aug 12, 12:10pm

Fri Aug 12, 11:10am

Fri Aug 12, 10:10am

Fri Aug 12, 9:10am

Fri Aug 12, 8:10am

Fri Aug 12, 7:10am

Fri Aug 12, 6:10am

Fri Aug 12, 5:10am

Fri Aug 12, 4:10am

Fri Aug 12, 3:10am

Fri Aug 12, 2:10am

Fri Aug 12, 1:10am

Fri Aug 12, 12:10am

Thu Aug 11, 11:10pm

Thu Aug 11, 10:10pm

Thu Aug 11, 9:10pm

Thu Aug 11, 8:10pm

Thu Aug 11, 7:10pm

Thu Aug 11, 6:10pm

Thu Aug 11, 5:10pm

Thu Aug 11, 4:10pm

Thu Aug 11, 3:10pm

Thu Aug 11, 2:10pm

Thu Aug 11, 1:10pm

Thu Aug 11, 12:10pm

Thu Aug 11, 11:10am

Thu Aug 11, 10:10am

Thu Aug 11, 9:10am

Thu Aug 11, 8:10am

Thu Aug 11, 7:10am

Thu Aug 11, 6:10am

Thu Aug 11, 5:10am

Thu Aug 11, 4:10am

Thu Aug 11, 3:10am

Thu Aug 11, 2:10am

Thu Aug 11, 1:10am

Thu Aug 11, 12:10am

Wed Aug 10, 11:10pm

Wed Aug 10, 10:10pm

Wed Aug 10, 9:10pm

Wed Aug 10, 8:10pm

Wed Aug 10, 7:10pm

Meta data:

ID: c9dfaf4e-7c2d-421b-bbed-9c0205a92395
Link: https://api.weather.gov/products/c9dfaf4e-7c2d-421b-bbed-9c0205a92395